Weather History for KDHN - December, 2012

Change the Weather History Date:

Tuesday, December 11, 2012

  Actual Average Record
Temperature  
Mean Temperature 50 °F 52 °F  
Max Temperature 57 °F 63 °F 79 °F (1961)
Min Temperature 43 °F 41 °F 23 °F (1957)
Degree Days  
Heating Degree Days 15 13  
Month to date heating degree days 35 134  
Since 1 July heating degree days 361 411  
Moisture  
Dew Point 45 °F    
Average Humidity 83    
Maximum Humidity 94    
Minimum Humidity 73    
Precipitation  
Precipitation 0.06 in 0.17 in 1.81 in (1947)
Month to date precipitation 0.11 1.98  
Year to date precipitation 36.94 51.56  
Sea Level Pressure  
Sea Level Pressure 30.04 in    
Wind  
Wind Speed 9 mph (NNW)    
Max Wind Speed 13 mph    
Max Gust Speed -    
Visibility 10 miles    
Events Rain    
T = Trace of Precipitation, MM = Missing Value Source: NWS Daily Summary

Daily Weather History Graph

Daily Weather History Graph

Search for Another Location

Airport or City:

Trip Planner

Search our weather history database for the weather conditions in past years. The results will help you decide how hot, cold, wet, or windy it might be!

Date:

Astronomy

Dec. 11, 2012 Rise Set
Actual Time 6:30 AM CST 4:39 PM CST
Civil Twilight 6:04 AM CST 5:06 PM CST
Nautical Twilight 5:33 AM CST 5:36 PM CST
Astronomical Twilight 5:04 AM CST 6:06 PM CST
Moon 4:28 AM CST (12/11) 3:15 PM CST (12/11)
Length of Visible Light 11h 02m
Length of Day
10h 08m
Waning Crescent, 4% of the Moon is Illuminated
Dec 11
Waning Crescent
Dec 13
New
Dec 19
First Quarter
Dec 28
Full
Jan 4
Last Quarter

Hourly Weather History & Observations

Time (CST) Temp. Windchill Dew Point Humidity Pressure Visibility Wind Dir Wind Speed Gust Speed Precip Events Conditions
12:53 AM 55.9 °F - 53.1 °F 90% 29.90 in 9.0 mi NW 12.7 mph - N/A   Overcast
1:37 AM 55.4 °F - 51.8 °F 88% 29.91 in 10.0 mi NNW 11.5 mph - N/A   Overcast
1:51 AM 53.6 °F - 51.8 °F 94% 29.91 in 10.0 mi NW 10.4 mph - N/A   Overcast
1:53 AM 54.0 °F - 51.1 °F 90% 29.90 in 10.0 mi NW 12.7 mph - N/A   Overcast
2:15 AM 53.6 °F - 50.0 °F 88% 29.92 in 10.0 mi NW 10.4 mph - N/A   Overcast
2:53 AM 53.1 °F - 48.9 °F 86% 29.91 in 10.0 mi NW 12.7 mph - N/A   Overcast
3:53 AM 51.1 °F - 48.9 °F 92% 29.94 in 7.0 mi NNW 8.1 mph - N/A   Overcast
4:53 AM 50.0 °F - 46.9 °F 89% 29.95 in 10.0 mi NNW 10.4 mph - N/A   Overcast
5:53 AM 50.0 °F - 46.9 °F 89% 29.97 in 10.0 mi NNW 10.4 mph - N/A   Overcast
6:53 AM 50.0 °F - 46.0 °F 86% 30.02 in 10.0 mi North 8.1 mph - N/A   Overcast
7:53 AM 50.0 °F - 46.0 °F 86% 30.05 in 10.0 mi North 6.9 mph - N/A   Overcast
8:00 AM 50.0 °F - 46.4 °F 87% 30.06 in 10.0 mi North 6.9 mph - N/A   Overcast
8:30 AM 50.0 °F - 46.4 °F 87% 30.05 in 10.0 mi North 8.1 mph - N/A   Overcast
8:53 AM 50.0 °F - 46.0 °F 86% 30.06 in 10.0 mi North 6.9 mph - N/A   Overcast
9:53 AM 50.0 °F - 46.0 °F 86% 30.06 in 10.0 mi North 8.1 mph - N/A   Overcast
10:11 AM 50.0 °F - 44.6 °F 82% 30.07 in 10.0 mi North 8.1 mph - N/A   Overcast
11:16 AM 50.0 °F - 44.6 °F 82% 30.07 in 10.0 mi NNW 5.8 mph - N/A   Overcast
11:53 AM 51.1 °F - 44.1 °F 77% 30.06 in 10.0 mi North 4.6 mph - N/A   Overcast
12:53 PM 52.0 °F - 44.1 °F 74% 30.04 in 10.0 mi NNW 6.9 mph - N/A   Overcast
1:53 PM 51.1 °F - 43.0 °F 74% 30.05 in 10.0 mi NNW 5.8 mph - N/A   Overcast
2:53 PM 50.0 °F - 42.1 °F 74% 30.06 in 10.0 mi North 5.8 mph - N/A   Overcast
3:53 PM 48.9 °F - 42.1 °F 77% 30.08 in 10.0 mi North 6.9 mph - 0.00 in   Overcast
4:53 PM 48.0 °F - 41.0 °F 77% 30.07 in 10.0 mi North 5.8 mph - N/A   Mostly Cloudy
5:53 PM 48.0 °F - 41.0 °F 77% 30.09 in 10.0 mi North 6.9 mph - N/A   Scattered Clouds
6:53 PM 46.9 °F - 39.0 °F 74% 30.10 in 10.0 mi North 9.2 mph - N/A   Mostly Cloudy
7:53 PM 46.0 °F 42.5 °F 37.9 °F 73% 30.12 in 10.0 mi North 6.9 mph - N/A   Overcast
8:53 PM 46.0 °F 42.5 °F 37.9 °F 73% 30.16 in 10.0 mi NNW 6.9 mph - N/A   Clear
9:53 PM 45.0 °F 40.6 °F 37.9 °F 76% 30.17 in 10.0 mi NNW 8.1 mph - N/A   Partly Cloudy
10:53 PM 44.1 °F 40.8 °F 39.0 °F 82% 30.18 in 10.0 mi North 5.8 mph - 0.01 in Rain Light Rain
11:53 PM 43.0 °F 39.5 °F 39.0 °F 86% 30.15 in 8.0 mi ENE 5.8 mph - 0.04 in Rain Light Rain